When you browse on this site, cookies collect data to enhance your experience and personalize the content and advertising you see.
Visit our Privacy Policy to learn more. By continuing to use the site, you agree to this use of cookies and data.
  • In Sweden
  • List of Countries
  • For 7 days
  • Water Temperature
  • Satellite Maps
  • Weather Map
  • Weather Widgets
  • user-avatar
    Login

    Hourly Weather Ambur

    Today, 11 December, Tuesday

    Time Temperature Precipitation Wind Pressure Humidity
    00:00 +22°C° 0 mm 1 mps 727 mmHg 86%
    01:00 +22°C° 0 mm 1 mps 727 mmHg 88%
    02:00 +19°C° 0 mm 0 mps 727 mmHg 89%
    03:00 +19°C° 0 mm 0 mps 727 mmHg 90%
    04:00 +19°C° 0 mm 0 mps 727 mmHg 90%
    05:00 +19°C° 0 mm 0 mps 727 mmHg 90%
    06:00 +20°C° 0 mm 0 mps 727 mmHg 84%
    07:00 +22°C° 0 mm 0 mps 728 mmHg 77%
    08:00 +23°C° 0 mm 0 mps 728 mmHg 71%
    09:00 +27°C° 0 mm 1 mps 728 mmHg 64%
    10:00 +28°C° 0 mm 2 mps 728 mmHg 56%
    11:00 +30°C° 0 mm 2 mps 728 mmHg 49%
    12:00 +31°C° 0 mm 2 mps 728 mmHg 48%
    13:00 +31°C° 0 mm 2 mps 727 mmHg 46%
    14:00 +33°C° 0 mm 3 mps 726 mmHg 45%
    15:00 +31°C° 0 mm 2 mps 726 mmHg 50%
    16:00 +29°C° 0 mm 2 mps 726 mmHg 55%
    17:00 +28°C° 0 mm 2 mps 726 mmHg 60%
    18:00 +27°C° 0 mm 2 mps 726 mmHg 63%
    19:00 +26°C° 0 mm 2 mps 727 mmHg 66%
    20:00 +25°C° 0 mm 2 mps 727 mmHg 69%
    21:00 +25°C° 0 mm 2 mps 727 mmHg 73%
    22:00 +24°C° 0 mm 1 mps 728 mmHg 78%
    23:00 +23°C° 0 mm 1 mps 728 mmHg 82%

    Tomorrow, 12 December, Wednesday

    Time Temperature Precipitation Wind Pressure Humidity
    00:00 +23°C° 0 mm 1 mps 727 mmHg 84%
    01:00 +20°C° 0 mm 0 mps 727 mmHg 86%
    02:00 +20°C° 0 mm 0 mps 727 mmHg 89%
    03:00 +20°C° 0 mm 0 mps 727 mmHg 89%
    04:00 +19°C° 0 mm 0 mps 727 mmHg 90%
    05:00 +19°C° 0 mm 0 mps 727 mmHg 91%
    06:00 +21°C° 0 mm 0 mps 728 mmHg 85%
    07:00 +24°C° 0 mm 1 mps 728 mmHg 79%
    08:00 +25°C° 0 mm 1 mps 729 mmHg 73%
    09:00 +27°C° 0 mm 1 mps 729 mmHg 64%
    10:00 +29°C° 0 mm 2 mps 729 mmHg 55%
    11:00 +30°C° 0 mm 2 mps 729 mmHg 45%
    12:00 +31°C° 0 mm 2 mps 728 mmHg 44%
    13:00 +31°C° 0 mm 2 mps 727 mmHg 43%
    14:00 +31°C° 0 mm 3 mps 727 mmHg 42%
    15:00 +30°C° 0 mm 2 mps 727 mmHg 48%
    16:00 +29°C° 0 mm 2 mps 727 mmHg 54%
    17:00 +27°C° 0 mm 2 mps 727 mmHg 60%
    18:00 +26°C° 0 mm 2 mps 727 mmHg 65%
    19:00 +25°C° 0 mm 2 mps 728 mmHg 70%
    20:00 +24°C° 0 mm 2 mps 728 mmHg 75%
    21:00 +23°C° 0 mm 1 mps 728 mmHg 79%
    22:00 +23°C° 0 mm 1 mps 728 mmHg 82%
    23:00 +22°C° 0 mm 1 mps 728 mmHg 86%

    Day after tomorrow, 13 December, Thursday

    Time Temperature Precipitation Wind Pressure Humidity
    00:00 +22°C° 0 mm 1 mps 728 mmHg 87%
    01:00 +21°C° 0 mm 1 mps 728 mmHg 88%
    02:00 +19°C° 0 mm 0 mps 727 mmHg 89%
    03:00 +21°C° 0 mm 1 mps 727 mmHg 89%
    04:00 +20°C° 0 mm 1 mps 727 mmHg 89%
    05:00 +20°C° 0 mm 1 mps 727 mmHg 89%
    06:00 +22°C° 0 mm 1 mps 728 mmHg 80%
    07:00 +23°C° 0 mm 1 mps 729 mmHg 72%
    08:00 +25°C° 0 mm 1 mps 729 mmHg 64%
    09:00 +27°C° 0 mm 2 mps 729 mmHg 57%
    10:00 +29°C° 0 mm 3 mps 729 mmHg 49%
    11:00 +31°C° 0 mm 3 mps 729 mmHg 42%
    12:00 +31°C° 0 mm 3 mps 728 mmHg 41%
    13:00 +31°C° 0 mm 3 mps 727 mmHg 41%
    14:00 +33°C° 0 mm 4 mps 727 mmHg 40%
    15:00 +30°C° 0 mm 3 mps 727 mmHg 47%
    16:00 +29°C° 0 mm 3 mps 727 mmHg 54%
    17:00 +27°C° 0 mm 3 mps 727 mmHg 61%
    18:00 +26°C° 0 mm 3 mps 727 mmHg 67%
    19:00 +25°C° 0 mm 2 mps 728 mmHg 72%
    20:00 +23°C° 0 mm 2 mps 729 mmHg 78%
    21:00 +23°C° 0 mm 2 mps 729 mmHg 81%
    22:00 +21°C° 0 mm 2 mps 728 mmHg 85%
    23:00 +21°C° 0 mm 1 mps 728 mmHg 88%

    14 December, Friday

    Time Temperature Precipitation Wind Pressure Humidity
    00:00 +21°C° 0 mm 1 mps 728 mmHg 88%
    01:00 +20°C° 0 mm 2 mps 727 mmHg 88%
    02:00 +19°C° 0 mm 2 mps 727 mmHg 88%
    03:00 +19°C° 0 mm 2 mps 727 mmHg 87%
    04:00 +19°C° 0 mm 2 mps 727 mmHg 85%
    05:00 +19°C° 0 mm 2 mps 727 mmHg 84%
    06:00 +20°C° 0 mm 2 mps 727 mmHg 78%
    07:00 +23°C° 0 mm 2 mps 728 mmHg 72%
    08:00 +24°C° 0 mm 2 mps 729 mmHg 65%
    09:00 +26°C° 0 mm 3 mps 729 mmHg 60%
    10:00 +28°C° 0 mm 4 mps 729 mmHg 54%
    11:00 +29°C° 0 mm 5 mps 728 mmHg 48%
    12:00 +30°C° 0 mm 5 mps 728 mmHg 48%
    13:00 +30°C° 0 mm 5 mps 727 mmHg 48%
    14:00 +30°C° 0 mm 5 mps 726 mmHg 48%
    15:00 +29°C° 0 mm 5 mps 726 mmHg 55%
    16:00 +28°C° 0 mm 4 mps 726 mmHg 61%
    17:00 +26°C° 0 mm 3 mps 726 mmHg 67%
    18:00 +25°C° 0 mm 3 mps 727 mmHg 72%
    19:00 +24°C° 0 mm 3 mps 728 mmHg 78%
    20:00 +22°C° 0 mm 3 mps 728 mmHg 83%
    21:00 +22°C° 0 mm 3 mps 728 mmHg 86%
    22:00 +21°C° 0 mm 3 mps 728 mmHg 88%
    23:00 +21°C° 0 mm 3 mps 727 mmHg 90%

    15 December, Saturday

    Time Temperature Precipitation Wind Pressure Humidity
    00:00 +21°C° 0 mm 3 mps 727 mmHg 90%
    01:00 +21°C° 0 mm 2 mps 726 mmHg 91%
    02:00 +20°C° 0 mm 2 mps 726 mmHg 91%
    03:00 +20°C° 0 mm 2 mps 726 mmHg 91%
    04:00 +20°C° 0 mm 3 mps 726 mmHg 90%
    05:00 +20°C° 0 mm 3 mps 726 mmHg 90%
    06:00 +21°C° 0 mm 4 mps 727 mmHg 87%
    07:00 +22°C° 0 mm 5 mps 727 mmHg 83%
    08:00 +23°C° 0 mm 6 mps 728 mmHg 80%
    09:00 +24°C° 0 mm 6 mps 728 mmHg 75%
    10:00 +26°C° 0 mm 7 mps 728 mmHg 71%
    11:00 +27°C° 0 mm 7 mps 728 mmHg 66%
    12:00 +27°C° 0 mm 7 mps 727 mmHg 67%
    13:00 +27°C° 0 mm 7 mps 727 mmHg 67%
    14:00 +27°C° 0 mm 7 mps 726 mmHg 68%
    15:00 +26°C° 0 mm 6 mps 726 mmHg 71%
    16:00 +24°C° 0 mm 6 mps 726 mmHg 73%
    17:00 +25°C° 0 mm 5 mps 727 mmHg 76%
    18:00 +23°C° 0 mm 5 mps 727 mmHg 79%
    19:00 +23°C° 0 mm 4 mps 728 mmHg 81%
    20:00 +22°C° 0 mm 4 mps 728 mmHg 83%
    21:00 +22°C° 0 mm 4 mps 728 mmHg 83%
    22:00 +22°C° 0 mm 4 mps 728 mmHg 84%
    23:00 +22°C° 0 mm 4 mps 728 mmHg 84%

    16 December, Sunday

    Time Temperature Precipitation Wind Pressure Humidity
    00:00 +22°C° 0 mm 4 mps 727 mmHg 84%
    01:00 +21°C° 0 mm 4 mps 726 mmHg 84%
    02:00 +21°C° 0 mm 4 mps 726 mmHg 85%
    03:00 +21°C° 0.1 mm 4 mps 726 mmHg 85%
    04:00 +21°C° 0.1 mm 4 mps 726 mmHg 85%
    05:00 +21°C° 0.1 mm 4 mps 726 mmHg 85%
    06:00 +21°C° 0 mm 5 mps 726 mmHg 83%
    07:00 +21°C° 0 mm 5 mps 727 mmHg 82%
    08:00 +22°C° 0 mm 6 mps 727 mmHg 80%
    09:00 +22°C° 0 mm 6 mps 727 mmHg 77%
    10:00 +23°C° 0 mm 6 mps 727 mmHg 74%
    11:00 +24°C° 0 mm 7 mps 727 mmHg 72%
    12:00 +24°C° 0 mm 7 mps 726 mmHg 70%
    13:00 +26°C° 0 mm 7 mps 725 mmHg 69%
    14:00 +26°C° 0 mm 7 mps 724 mmHg 68%
    15:00 +24°C° 0 mm 6 mps 725 mmHg 70%
    16:00 +24°C° 0 mm 6 mps 725 mmHg 73%
    17:00 +23°C° 0 mm 5 mps 725 mmHg 75%
    18:00 +22°C° 0 mm 5 mps 725 mmHg 77%
    19:00 +22°C° 0 mm 4 mps 726 mmHg 79%
    20:00 +21°C° 0 mm 4 mps 726 mmHg 81%
    21:00 +21°C° 0 mm 4 mps 726 mmHg 82%
    22:00 +20°C° 0 mm 3 mps 726 mmHg 83%
    23:00 +20°C° 0 mm 3 mps 726 mmHg 84%
    Show more